SKY MUSTER 2

Last updated on Jan. 19, 2021, 6:23 a.m. UTC

1 41794U 16060B   21018.78628613 -.00000243  00000-0  00000-0 0  9991
2 41794   0.0147   5.3090 0001491 289.4575 251.4756  1.00272431 15704
UTC
Height (km)
Latitude
Longitude
Inclination
Orbital Period
UTC large
Height (km)
Speed (km/s)
/
Latitude / Longitude
Inclination (degrees)
Orbital Period (minutes)
Azimuth
Elevation
Range (km)
Doppler Factor
iOS Compass Heading
iOS Angle

Next 30 passes for location: Hong Kong

Rise time Rise Azimuth (degrees) Set time Set Azimuth (degrees) Duration Max altitude (degrees)

No matching passes for this satellites